Location: Los Ranchitos
(37.9930°N, 122.5425°W)
Time: 07:52:13
(UTC+00:00)

OBJECT-B - Pass Details

Date: 21 September 2020
Orbit: 421 x 433 km, 97.0° (Epoch: 09 October)

Event Time Altitude Azimuth Distance (km) Brightness Sun altitude
Exits shadow 04:29:46 12° 347° (NNW) 1,425 3.8 -27.7°
Drops below altitude 10° 04:29:59 10° 348° (NNW) 1,516 4.0 -27.7°
Sets 04:32:00 0° 349° (NNW) 2,387 5.1 -28.1°
